Change the Weather History Date:

Wednesday, April 17, 2013

  Actual Average Record
Temperature  
Mean Temperature 78 °F -  
Max Temperature 86 °F 82 °F 89 °F (1998)
Min Temperature 71 °F 65 °F 62 °F (2006)
Cooling Degree Days 14    
Growing Degree Days 28 (Base 50)    
Moisture  
Dew Point 60 °F    
Average Humidity 56    
Maximum Humidity 69    
Minimum Humidity 28    
Precipitation  
Precipitation 0.00 in 0.24 in - ()
Sea Level Pressure  
Sea Level Pressure 29.93 in    
Wind  
Wind Speed 11 mph ()    
Max Wind Speed 23 mph    
Max Gust Speed 29 mph    
Visibility 8.5 miles    
Events      
Averages and records for this station are not official NWS values.
T = Trace of Precipitation, MM = Missing Value Source: Averaged Metar Reports

Daily Weather History Graph

Daily Weather History Graph

Search for Another Location

Airport or City:

Trip Planner

Search our weather history database for the weather conditions in past years. The results will help you decide how hot, cold, wet, or windy it might be!

Date:

Astronomy

Apr. 17, 2013 Rise Set
Actual Time 5:25 AM CST 5:47 PM CST
Civil Twilight 5:03 AM CST 6:08 PM CST
Nautical Twilight 4:38 AM CST 6:33 PM CST
Astronomical Twilight 4:13 AM CST 6:58 PM CST
Moon 10:59 AM CST (4/17) 11:46 PM CST (4/17)
Length of Visible Light 13h 04m
Length of Day
12h 22m
Waxing Crescent, 43% of the Moon is Illuminated
Apr 17
Waxing Crescent
Apr 18
First Quarter
Apr 25
Full
May 2
Last Quarter
May 9
New

Hourly Weather History & Observations

Time (CST) Temp. Heat Index Dew Point Humidity Pressure Visibility Wind Dir Wind Speed Gust Speed Precip Events Conditions
12:00 AM 72 °F - 62 °F 64% 29.76 in 12 mi East 23.0 mph - -  
12:00 AM 73.4 °F - 62.6 °F 69% 29.97 in - East 11.5 mph 23.0 mph N/A   Clear
1:00 AM 73.4 °F - 62.6 °F 69% 29.96 in - East 11.5 mph 23.0 mph N/A   Clear
2:00 AM 73.4 °F - 60.8 °F 65% 29.95 in - East 11.5 mph 23.0 mph N/A   Clear
3:00 AM 72 °F - 62 °F 62% 29.76 in 12 mi ESE 11.5 mph - -  
3:00 AM 71.6 °F - 60.8 °F 69% 29.94 in - ESE 11.5 mph - N/A   Clear
4:00 AM 71.6 °F - 60.8 °F 69% 29.94 in - East 11.5 mph - N/A   Clear
5:00 AM 71.6 °F - 60.8 °F 69% 29.96 in - ESE 12.7 mph - N/A   Clear
6:00 AM 71 °F - 60 °F 61% 29.83 in 12 mi East 11.5 mph - -   Clear
6:00 AM 71.6 °F - 60.8 °F 69% 29.98 in - East 11.5 mph - N/A   Clear
7:00 AM 73.4 °F - 60.8 °F 65% 29.99 in - East 17.3 mph - N/A   Clear
8:00 AM 75.2 °F - 59.0 °F 57% 29.99 in - ESE 13.8 mph 25.3 mph N/A   Clear
9:00 AM 80 °F - 57 °F 34% 29.81 in 12 mi East 16.1 mph - -   Scattered Clouds
9:00 AM 80.6 °F 80.8 °F 57.2 °F 45% 30.00 in 6.2 mi East 16.1 mph 28.8 mph N/A   Mostly Cloudy
10:00 AM 82.4 °F 81.7 °F 55.4 °F 39% 29.99 in 6.2 mi East 12.7 mph 24.2 mph N/A   Mostly Cloudy
11:00 AM 84.2 °F 83.5 °F 57.2 °F 40% 29.98 in 6.2 mi ENE 11.5 mph 23.0 mph N/A   Mostly Cloudy
12:00 PM 85 °F - 57 °F 28% 29.81 in 12 mi East 11.5 mph - -   Scattered Clouds
12:00 PM 86.0 °F 84.9 °F 57.2 °F 37% 29.98 in 6.2 mi East 11.5 mph 23.0 mph N/A   Mostly Cloudy
1:00 PM 86.0 °F 84.9 °F 57.2 °F 37% 29.95 in 6.2 mi East 10.4 mph 21.9 mph N/A   Scattered Clouds
2:00 PM 84.2 °F 83.5 °F 57.2 °F 40% 29.92 in 6.2 mi ESE 11.5 mph - N/A   Mostly Cloudy
3:00 PM 83 °F - 59 °F 33% 29.74 in 12 mi ESE 9.2 mph - -   Overcast
3:00 PM 84.2 °F 83.8 °F 59.0 °F 42% 29.92 in 6.2 mi ESE 9.2 mph - N/A   Mostly Cloudy
4:00 PM 80.6 °F 81.8 °F 62.6 °F 54% 29.93 in 6.2 mi SSW 6.9 mph - N/A   Mostly Cloudy
5:00 PM 78.8 °F - 62.6 °F 57% 29.93 in 6.2 mi South 5.8 mph - N/A   Mostly Cloudy
6:00 PM 75.2 °F - 64.4 °F 69% 29.96 in 6.2 mi East 6.9 mph - N/A   Mostly Cloudy
7:00 PM 75.2 °F - 59.0 °F 57% 29.98 in 6.2 mi ENE 2.3 mph - N/A   Scattered Clouds
8:00 PM 73.4 °F - 60.8 °F 65% 29.99 in - East 5.8 mph - N/A   Clear
9:00 PM 72 °F - 61 °F 61% 29.83 in 12 mi East 9.2 mph - -   Clear
9:00 PM 73.4 °F - 60.8 °F 65% 30.01 in - East 9.2 mph - N/A   Clear
10:00 PM 71.6 °F - 60.8 °F 69% 30.01 in - East 8.1 mph - N/A   Clear
11:00 PM 71.6 °F - 60.8 °F 69% 29.99 in - East 8.1 mph - N/A   Clear